Location: *
(48.7358°N, 0.3111°E)
Time: 10:02:43
(UTC+00:00)

Cosmos 614 Rocket - Pass Details

Date: 22 October 2019
Orbit: 734 x 763 km, 74.1° (Epoch: 18 November)

Event Time Altitude Azimuth Distance (km) Brightness Sun altitude
Exits shadow 03:53:33 65° 175° (S) 839 4.0 -26.2°
Maximum altitude 03:54:17 79° 111° (ESE) 781 4.0 -26.0°
Drops below altitude 10° 03:59:30 10° 25° (NNE) 2,296 6.9 -25.2°
Sets 04:01:52 0° 25° (NNE) 3,221 7.7 -24.8°
